Chatham, MA

10:55 AM EDT on May 27, 2018 (GMT -0400)
Chatham Municipal

Weather History for KCQX - February, 2013

Change the Weather History Date:

Sunday, February 24, 2013

  Actual Average Record
Temperature  
Mean Temperature 38 °F -  
Max Temperature 44 °F 38 °F 55 °F (2017)
Min Temperature 33 °F 25 °F 8 °F (2015)
Degree Days  
Heating Degree Days 26    
Moisture  
Dew Point 39 °F    
Average Humidity 95    
Maximum Humidity 100    
Minimum Humidity 87    
Precipitation  
Precipitation 1.76 in - - ()
Sea Level Pressure  
Sea Level Pressure 29.66 in    
Wind  
Wind Speed 12 mph (NE)    
Max Wind Speed 18 mph    
Max Gust Speed 33 mph    
Visibility 4 miles    
Events Rain , Snow    
Averages and records for this station are not official NWS values.
T = Trace of Precipitation, MM = Missing Value Source: NWS Daily Summary

Daily Weather History Graph

Daily Weather History Graph

Search for Another Location

Airport or City:

Astronomy

Feb. 24, 2013 Rise Set
Actual Time 6:22 AM EST 5:24 PM EST
Civil Twilight 5:54 AM EST 5:52 PM EST
Nautical Twilight 5:21 AM EST 6:25 PM EST
Astronomical Twilight 4:49 AM EST 6:57 PM EST
Moon 4:32 PM EST (2/24) 5:17 AM EST (2/24)
Length of Visible Light 11h 58m
Length of Day
11h 02m
Waxing Gibbous, 99% of the Moon is Illuminated
Feb 24
Waxing Gibbous
Feb 25
Full
Mar 4
Last Quarter
Mar 11
New
Mar 19
First Quarter

Hourly Weather History & Observations

Time (EST) Temp. Windchill Dew Point Humidity Pressure Visibility Wind Dir Wind Speed Gust Speed Precip Events Conditions
12:05 AM 39.2 °F 32.5 °F 39.2 °F 100% 29.88 in 5.0 mi East 10.4 mph 17.3 mph 0.02 in Rain Rain
12:52 AM 41.0 °F 33.9 °F 39.9 °F 96% 29.85 in 4.0 mi East 12.7 mph - 0.07 in Rain Light Rain
1:52 AM 41.0 °F 33.9 °F 39.9 °F 96% 29.83 in 4.0 mi ENE 12.7 mph 19.6 mph 0.05 in Rain Rain
2:52 AM 42.1 °F 34.2 °F 41.0 °F 96% 29.77 in 6.0 mi ENE 16.1 mph - 0.12 in Rain Light Rain
3:52 AM 43.0 °F 35.7 °F 41.0 °F 93% 29.73 in 7.0 mi East 15.0 mph 24.2 mph 0.03 in Rain Light Rain
4:52 AM 43.0 °F 36.0 °F 42.1 °F 97% 29.71 in 4.0 mi East 13.8 mph 20.7 mph 0.04 in Rain Light Rain
5:22 AM 42.8 °F 35.8 °F 42.8 °F 100% 29.69 in 2.5 mi East 13.8 mph 24.2 mph 0.05 in Rain Rain
5:31 AM 42.8 °F 36.6 °F 42.8 °F 100% 29.69 in 3.0 mi East 11.5 mph - 0.06 in Rain Rain
5:52 AM 43.0 °F 35.7 °F 42.1 °F 97% 29.70 in 4.0 mi East 15.0 mph 21.9 mph 0.10 in Rain Rain
6:52 AM 43.0 °F 36.8 °F 42.1 °F 97% 29.68 in 5.0 mi East 11.5 mph 20.7 mph 0.05 in Rain Light Rain
7:52 AM 44.1 °F 37.7 °F 43.0 °F 96% 29.68 in 3.0 mi ENE 12.7 mph - 0.08 in Rain Rain
8:32 AM 44.6 °F 37.2 °F 42.8 °F 93% 29.65 in 2.5 mi ENE 17.3 mph 23.0 mph 0.06 in Rain Rain
8:52 AM 44.1 °F 37.7 °F 42.1 °F 93% 29.65 in 3.0 mi NE 12.7 mph 23.0 mph 0.11 in Rain Rain
9:19 AM 42.8 °F 36.6 °F 42.8 °F 100% 29.64 in 2.0 mi NE 11.5 mph - 0.05 in Rain Rain
9:52 AM 43.0 °F 36.4 °F 42.1 °F 97% 29.62 in 2.5 mi NE 12.7 mph 21.9 mph 0.10 in Rain Light Rain
10:11 AM 44.6 °F 37.4 °F 42.8 °F 93% 29.59 in 2.5 mi NE 16.1 mph 27.6 mph 0.05 in Rain Rain
10:26 AM 44.6 °F 36.9 °F 42.8 °F 93% 29.59 in 3.0 mi ENE 18.4 mph 26.5 mph 0.07 in Rain Rain
10:52 AM 44.1 °F 36.2 °F 42.1 °F 93% 29.57 in 3.0 mi NE 18.4 mph 25.3 mph 0.10 in Rain Light Rain
11:50 AM 42.8 °F 34.8 °F 41.0 °F 93% 29.55 in 5.0 mi NE 17.3 mph 26.5 mph 0.05 in Rain Light Rain
11:52 AM 43.0 °F 35.1 °F 41.0 °F 93% 29.56 in 5.0 mi NE 17.3 mph 26.5 mph 0.06 in Rain Light Rain
12:07 PM 42.8 °F 36.2 °F 41.0 °F 93% 29.54 in 3.0 mi NE 12.7 mph 25.3 mph 0.02 in Rain Rain
12:31 PM 42.8 °F 37.0 °F 41.0 °F 93% 29.53 in 3.0 mi NNE 10.4 mph 21.9 mph 0.04 in Rain Light Rain
12:45 PM 42.8 °F 35.4 °F 41.0 °F 93% 29.54 in 2.5 mi NNE 15.0 mph 23.0 mph 0.06 in Rain Rain
12:52 PM 42.1 °F 35.7 °F 41.0 °F 96% 29.55 in 3.0 mi NNE 11.5 mph 23.0 mph 0.07 in Rain Light Rain
1:03 PM 42.8 °F 37.5 °F 42.8 °F 100% 29.54 in 2.0 mi North 9.2 mph 23.0 mph 0.02 in Rain Rain
1:10 PM 42.8 °F 36.2 °F 42.8 °F 100% 29.55 in 1.2 mi North 12.7 mph 21.9 mph 0.05 in Rain Rain
1:21 PM 42.8 °F 36.6 °F 41.0 °F 93% 29.56 in 1.2 mi North 11.5 mph 24.2 mph 0.09 in Rain Rain
1:37 PM 42.8 °F 37.5 °F 41.0 °F 93% 29.56 in 2.5 mi North 9.2 mph 20.7 mph 0.14 in Rain Rain
1:50 PM 42.8 °F 36.2 °F 39.2 °F 87% 29.57 in 4.0 mi North 12.7 mph 26.5 mph 0.16 in Rain Rain
1:52 PM 41.0 °F 34.3 °F 39.9 °F 96% 29.57 in 4.0 mi North 11.5 mph 26.5 mph 0.17 in Rain Rain
2:07 PM 41.0 °F 34.3 °F 39.2 °F 93% 29.57 in 5.0 mi NNE 11.5 mph 33.4 mph 0.02 in Rain Light Rain
2:52 PM 39.0 °F 32.8 °F 37.9 °F 96% 29.59 in 4.0 mi North 9.2 mph 25.3 mph 0.13 in Rain Rain
3:08 PM 39.2 °F 31.6 °F 37.4 °F 93% 29.59 in 6.0 mi NNE 12.7 mph 25.3 mph 0.04 in Rain Light Rain
3:47 PM 37.4 °F 28.5 °F 35.6 °F 93% 29.60 in 7.0 mi NNE 15.0 mph 25.3 mph 0.11 in Rain Light Rain
3:52 PM 37.0 °F 28.1 °F 35.1 °F 93% 29.61 in 7.0 mi NNE 15.0 mph 25.3 mph 0.11 in Rain Light Rain
4:52 PM 36.0 °F 28.0 °F 35.1 °F 97% 29.64 in 8.0 mi NNE 11.5 mph 23.0 mph 0.02 in Rain Light Rain
5:52 PM 36.0 °F 28.5 °F 34.0 °F 93% 29.68 in 6.0 mi NNE 10.4 mph 18.4 mph 0.02 in Rain Light Rain
6:52 PM 35.1 °F 27.9 °F 34.0 °F 96% 29.71 in 5.0 mi NNE 9.2 mph 19.6 mph 0.08 in Snow Light Snow
7:17 PM 35.6 °F 29.2 °F 33.8 °F 93% 29.72 in 5.0 mi North 8.1 mph - 0.02 in Snow Light Snow
7:52 PM 35.1 °F 27.9 °F 33.1 °F 92% 29.75 in 3.0 mi NNE 9.2 mph - 0.06 in Snow Light Snow
8:52 PM 35.1 °F 30.1 °F 34.0 °F 96% 29.77 in 6.0 mi Variable 5.8 mph - 0.06 in Snow Light Snow
9:52 PM 34.0 °F 28.8 °F 34.0 °F 100% 29.79 in 7.0 mi Variable 5.8 mph - 0.03 in Rain Light Rain
10:52 PM 34.0 °F 28.8 °F 33.1 °F 96% 29.81 in 4.0 mi Variable 5.8 mph - 0.05 in Snow Light Snow
11:09 PM 33.8 °F 27.7 °F 33.8 °F 100% 29.81 in 2.0 mi NNW 6.9 mph - 0.02 in Snow Light Snow
11:17 PM 33.8 °F 28.6 °F 32.0 °F 93% 29.81 in 1.5 mi Variable 5.8 mph - 0.03 in Snow Light Snow
11:41 PM 33.8 °F 28.6 °F 32.0 °F 93% 29.82 in 2.0 mi NNW 5.8 mph - 0.04 in Snow Light Snow
11:52 PM 33.1 °F 26.1 °F 32.0 °F 96% 29.83 in 3.0 mi North 8.1 mph - 0.05 in Snow Light Snow